Time,TemperatureF,DewpointF,PressureIn,WindDirection,WindDirectionDegrees,WindSpeedMPH,WindSpeedGustMPH,Humidity,HourlyPrecipIn,Conditions,Clouds,dailyrainin,SoftwareType,DateUTC
2013-05-19 00:07:00,58.7,56.0,30.25,East,95,5.0,6.0,90,0.00,,,0.00,weatherlink.com 1.10,2013-05-19 04:07:00,
2013-05-19 00:22:00,58.5,56.0,30.24,ESE,121,1.0,7.0,91,0.00,,,0.00,weatherlink.com 1.10,2013-05-19 04:22:00,
2013-05-19 00:37:00,58.3,56.0,30.24,ESE,109,1.0,3.0,93,0.00,,,0.00,weatherlink.com 1.10,2013-05-19 04:37:00,
2013-05-19 00:52:00,58.2,57.0,30.24,East,80,1.0,3.0,94,0.00,,,0.00,weatherlink.com 1.10,2013-05-19 04:52:00,
2013-05-19 01:07:00,58.2,57.0,30.23,ENE,65,2.0,3.0,94,0.00,,,0.00,weatherlink.com 1.10,2013-05-19 05:07:00,
2013-05-19 01:22:00,58.2,57.0,30.23,East,96,5.0,5.0,95,0.00,,,0.00,weatherlink.com 1.10,2013-05-19 05:22:00,
2013-05-19 01:37:00,58.2,57.0,30.22,ENE,69,4.0,5.0,95,0.00,,,0.00,weatherlink.com 1.10,2013-05-19 05:37:00,
2013-05-19 01:52:00,58.2,57.0,30.22,ESE,112,2.0,6.0,95,0.00,,,0.00,weatherlink.com 1.10,2013-05-19 05:52:00,
2013-05-19 02:07:00,58.2,57.0,30.21,East,96,2.0,5.0,95,0.00,,,0.00,weatherlink.com 1.10,2013-05-19 06:07:00,
2013-05-19 02:22:00,58.2,57.0,30.21,ESE,123,5.0,6.0,95,0.00,,,0.00,weatherlink.com 1.10,2013-05-19 06:22:00,
2013-05-19 02:37:00,58.2,57.0,30.21,ESE,120,2.0,5.0,95,0.00,,,0.00,weatherlink.com 1.10,2013-05-19 06:37:00,
2013-05-19 02:52:00,58.4,57.0,30.20,ESE,122,8.0,9.0,95,0.00,,,0.00,weatherlink.com 1.10,2013-05-19 06:52:00,
2013-05-19 03:07:00,58.6,57.0,30.20,SE,134,5.0,8.0,94,0.00,,,0.00,weatherlink.com 1.10,2013-05-19 07:07:00,
2013-05-19 03:22:00,58.8,57.0,30.19,ESE,104,3.0,9.0,94,0.00,,,0.00,weatherlink.com 1.10,2013-05-19 07:22:00,
2013-05-19 03:37:00,58.8,57.0,30.19,East,88,5.0,7.0,94,0.00,,,0.00,weatherlink.com 1.10,2013-05-19 07:37:00,
2013-05-19 03:52:00,58.9,58.0,30.19,ESE,121,3.0,9.0,95,0.00,,,0.00,weatherlink.com 1.10,2013-05-19 07:52:00,
2013-05-19 04:07:00,59.1,58.0,30.18,ESE,111,5.0,10.0,95,0.00,,,0.00,weatherlink.com 1.10,2013-05-19 08:07:00,
2013-05-19 04:22:00,59.4,58.0,30.19,SE,139,6.0,11.0,94,0.00,,,0.00,weatherlink.com 1.10,2013-05-19 08:22:00,
2013-05-19 04:37:00,59.6,58.0,30.19,SSE,155,5.0,10.0,93,0.00,,,0.00,weatherlink.com 1.10,2013-05-19 08:37:00,
2013-05-19 04:52:00,59.9,58.0,30.20,SE,140,5.0,11.0,93,0.00,,,0.00,weatherlink.com 1.10,2013-05-19 08:52:00,
2013-05-19 05:07:00,59.7,58.0,30.20,ESE,123,3.0,7.0,93,0.00,,,0.00,weatherlink.com 1.10,2013-05-19 09:07:00,
2013-05-19 05:22:00,59.4,58.0,30.20,East,85,5.0,8.0,94,0.00,,,0.00,weatherlink.com 1.10,2013-05-19 09:22:00,
2013-05-19 05:37:00,59.3,58.0,30.20,SE,130,4.0,5.0,95,0.00,,,0.00,weatherlink.com 1.10,2013-05-19 09:37:00,
2013-05-19 05:52:00,59.3,58.0,30.20,ESE,115,4.0,7.0,95,0.00,,,0.00,weatherlink.com 1.10,2013-05-19 09:52:00,
2013-05-19 06:07:00,59.2,58.0,30.20,SE,124,1.0,8.0,95,0.00,,,0.00,weatherlink.com 1.10,2013-05-19 10:07:00,
2013-05-19 06:22:00,59.2,58.0,30.20,East,88,6.0,9.0,95,0.00,,,0.00,weatherlink.com 1.10,2013-05-19 10:22:00,
2013-05-19 06:37:00,59.1,58.0,30.20,ESE,119,3.0,5.0,95,0.00,,,0.00,weatherlink.com 1.10,2013-05-19 10:37:00,
2013-05-19 06:52:00,58.8,57.0,30.21,SE,126,5.0,9.0,95,0.00,,,0.00,weatherlink.com 1.10,2013-05-19 10:52:00,
2013-05-19 07:07:00,58.8,58.0,30.21,ESE,118,3.0,9.0,96,0.00,,,0.00,weatherlink.com 1.10,2013-05-19 11:07:00,
2013-05-19 07:22:00,58.8,58.0,30.21,ENE,61,5.0,8.0,96,0.00,,,0.00,weatherlink.com 1.10,2013-05-19 11:22:00,
2013-05-19 07:37:00,58.7,58.0,30.21,East,82,3.0,10.0,96,0.00,,,0.00,weatherlink.com 1.10,2013-05-19 11:37:00,
2013-05-19 07:52:00,58.7,58.0,30.22,SE,128,5.0,8.0,96,0.00,,,0.00,weatherlink.com 1.10,2013-05-19 11:52:00,
2013-05-19 08:07:00,58.7,58.0,30.23,East,89,5.0,8.0,96,0.00,,,0.00,weatherlink.com 1.10,2013-05-19 12:07:00,
2013-05-19 08:22:00,58.8,58.0,30.22,East,92,7.0,9.0,96,0.00,,,0.00,weatherlink.com 1.10,2013-05-19 12:22:00,
2013-05-19 08:37:00,58.9,58.0,30.23,ESE,106,2.0,11.0,96,0.00,,,0.00,weatherlink.com 1.10,2013-05-19 12:37:00,
2013-05-19 08:52:00,59.0,58.0,30.23,East,91,6.0,10.0,96,0.00,,,0.00,weatherlink.com 1.10,2013-05-19 12:52:00,
2013-05-19 09:07:00,59.1,58.0,30.23,East,82,2.0,8.0,96,0.00,,,0.00,weatherlink.com 1.10,2013-05-19 13:07:00,
2013-05-19 09:22:00,59.1,58.0,30.24,ESE,107,5.0,10.0,96,0.00,,,0.00,weatherlink.com 1.10,2013-05-19 13:22:00,
2013-05-19 09:37:00,59.2,58.0,30.23,East,92,3.0,11.0,96,0.00,,,0.00,weatherlink.com 1.10,2013-05-19 13:37:00,
2013-05-19 09:52:00,59.3,58.0,30.23,SE,124,3.0,10.0,96,0.00,,,0.00,weatherlink.com 1.10,2013-05-19 13:52:00,
2013-05-19 10:07:00,59.4,58.0,30.23,ESE,105,2.0,10.0,96,0.00,,,0.00,weatherlink.com 1.10,2013-05-19 14:07:00,
2013-05-19 10:22:00,59.6,59.0,30.23,ENE,77,4.0,8.0,96,0.00,,,0.00,weatherlink.com 1.10,2013-05-19 14:22:00,
2013-05-19 10:37:00,60.0,59.0,30.23,East,82,7.0,7.0,96,0.00,,,0.00,weatherlink.com 1.10,2013-05-19 14:37:00,
2013-05-19 10:52:00,60.2,59.0,30.23,East,89,3.0,10.0,95,0.00,,,0.00,weatherlink.com 1.10,2013-05-19 14:52:00,
2013-05-19 11:08:00,60.4,59.0,30.23,East,91,6.0,10.0,95,0.00,,,0.00,weatherlink.com 1.10,2013-05-19 15:08:00,
2013-05-19 11:23:00,60.7,59.0,30.22,East,86,5.0,10.0,94,0.00,,,0.00,weatherlink.com 1.10,2013-05-19 15:23:00,
2013-05-19 11:38:00,61.1,60.0,30.22,ESE,107,7.0,9.0,95,0.00,,,0.00,weatherlink.com 1.10,2013-05-19 15:38:00,
2013-05-19 11:53:00,61.4,60.0,30.22,East,91,3.0,10.0,94,0.00,,,0.00,weatherlink.com 1.10,2013-05-19 15:53:00,
2013-05-19 12:08:00,61.9,60.0,30.21,ESE,109,9.0,9.0,93,0.00,,,0.00,weatherlink.com 1.10,2013-05-19 16:08:00,
2013-05-19 12:23:00,62.2,60.0,30.21,East,100,7.0,11.0,93,0.00,,,0.00,weatherlink.com 1.10,2013-05-19 16:23:00,
2013-05-19 12:38:00,62.9,60.0,30.20,SE,124,3.0,13.0,91,0.00,,,0.00,weatherlink.com 1.10,2013-05-19 16:38:00,
2013-05-19 12:53:00,63.2,61.0,30.20,East,88,6.0,11.0,91,0.00,,,0.00,weatherlink.com 1.10,2013-05-19 16:53:00,
2013-05-19 13:08:00,63.4,61.0,30.19,East,86,5.0,11.0,90,0.00,,,0.00,weatherlink.com 1.10,2013-05-19 17:08:00,
2013-05-19 13:23:00,63.9,61.0,30.19,ESE,122,5.0,9.0,90,0.00,,,0.00,weatherlink.com 1.10,2013-05-19 17:23:00,
2013-05-19 13:38:00,64.2,61.0,30.19,ESE,113,4.0,9.0,89,0.00,,,0.00,weatherlink.com 1.10,2013-05-19 17:38:00,
2013-05-19 13:53:00,64.4,61.0,30.18,SE,125,3.0,9.0,89,0.00,,,0.00,weatherlink.com 1.10,2013-05-19 17:53:00,
2013-05-19 14:08:00,64.7,62.0,30.18,East,90,3.0,10.0,89,0.00,,,0.00,weatherlink.com 1.10,2013-05-19 18:08:00,
2013-05-19 14:23:00,64.7,62.0,30.17,SE,126,7.0,11.0,89,0.00,,,0.00,weatherlink.com 1.10,2013-05-19 18:23:00,
2013-05-19 14:38:00,64.8,62.0,30.17,East,84,7.0,9.0,89,0.00,,,0.00,weatherlink.com 1.10,2013-05-19 18:38:00,
2013-05-19 14:53:00,65.0,62.0,30.16,East,94,5.0,9.0,89,0.00,,,0.00,weatherlink.com 1.10,2013-05-19 18:53:00,
2013-05-19 15:08:00,64.8,62.0,30.15,ESE,115,3.0,11.0,90,0.00,,,0.00,weatherlink.com 1.10,2013-05-19 19:08:00,
2013-05-19 15:23:00,64.5,61.0,30.15,ESE,106,3.0,11.0,89,0.00,,,0.00,weatherlink.com 1.10,2013-05-19 19:23:00,
2013-05-19 15:38:00,64.7,62.0,30.16,ESE,106,4.0,9.0,90,0.00,,,0.00,weatherlink.com 1.10,2013-05-19 19:38:00,
2013-05-19 15:53:00,64.7,62.0,30.15,East,96,5.0,10.0,90,0.00,,,0.00,weatherlink.com 1.10,2013-05-19 19:53:00,
2013-05-19 16:08:00,64.5,62.0,30.15,East,101,2.0,9.0,90,0.00,,,0.00,weatherlink.com 1.10,2013-05-19 20:08:00,
2013-05-19 16:23:00,64.5,62.0,30.14,ESE,115,5.0,10.0,90,0.00,,,0.00,weatherlink.com 1.10,2013-05-19 20:23:00,
2013-05-19 16:38:00,64.6,62.0,30.14,SE,144,5.0,10.0,90,0.00,,,0.00,weatherlink.com 1.10,2013-05-19 20:38:00,
2013-05-19 16:53:00,64.5,62.0,30.14,ESE,117,2.0,9.0,90,0.00,,,0.00,weatherlink.com 1.10,2013-05-19 20:53:00,
2013-05-19 17:08:00,64.6,62.0,30.14,SE,146,4.0,8.0,90,0.00,,,0.00,weatherlink.com 1.10,2013-05-19 21:08:00,
2013-05-19 17:23:00,64.5,62.0,30.14,ESE,103,4.0,7.0,90,0.00,,,0.00,weatherlink.com 1.10,2013-05-19 21:23:00,
2013-05-19 17:38:00,64.4,62.0,30.14,East,101,3.0,9.0,91,0.00,,,0.00,weatherlink.com 1.10,2013-05-19 21:38:00,
2013-05-19 17:53:00,64.4,62.0,30.14,ESE,105,5.0,8.0,91,0.00,,,0.00,weatherlink.com 1.10,2013-05-19 21:53:00,
2013-05-19 18:08:00,64.3,62.0,30.14,ENE,65,3.0,8.0,92,0.00,,,0.00,weatherlink.com 1.10,2013-05-19 22:08:00,
2013-05-19 18:23:00,64.3,62.0,30.14,East,92,5.0,7.0,92,0.00,,,0.00,weatherlink.com 1.10,2013-05-19 22:23:00,
2013-05-19 18:38:00,64.1,62.0,30.14,ENE,74,3.0,8.0,92,0.00,,,0.00,weatherlink.com 1.10,2013-05-19 22:38:00,
2013-05-19 18:53:00,64.0,62.0,30.14,East,88,6.0,8.0,93,0.00,,,0.00,weatherlink.com 1.10,2013-05-19 22:53:00,
2013-05-19 19:08:00,63.9,62.0,30.13,ESE,109,4.0,7.0,93,0.00,,,0.00,weatherlink.com 1.10,2013-05-19 23:08:00,
2013-05-19 19:23:00,63.9,62.0,30.13,East,94,6.0,9.0,93,0.00,,,0.00,weatherlink.com 1.10,2013-05-19 23:23:00,
2013-05-19 19:38:00,63.7,62.0,30.13,ESE,105,3.0,9.0,93,0.00,,,0.00,weatherlink.com 1.10,2013-05-19 23:38:00,
2013-05-19 19:53:00,63.6,62.0,30.13,ENE,65,2.0,8.0,93,0.00,,,0.00,weatherlink.com 1.10,2013-05-19 23:53:00,
2013-05-19 20:08:00,63.5,62.0,30.14,ENE,75,4.0,5.0,93,0.00,,,0.00,weatherlink.com 1.10,2013-05-20 00:08:00,
2013-05-19 20:23:00,63.4,61.0,30.14,ENE,78,2.0,7.0,93,0.00,,,0.00,weatherlink.com 1.10,2013-05-20 00:23:00,
2013-05-19 20:38:00,63.3,61.0,30.14,East,84,2.0,7.0,93,0.00,,,0.00,weatherlink.com 1.10,2013-05-20 00:38:00,
2013-05-19 20:53:00,63.2,61.0,30.15,East,88,2.0,6.0,93,0.00,,,0.00,weatherlink.com 1.10,2013-05-20 00:53:00,
2013-05-19 21:08:00,63.2,61.0,30.16,SE,126,3.0,7.0,93,0.00,,,0.00,weatherlink.com 1.10,2013-05-20 01:08:00,
2013-05-19 21:23:00,63.0,61.0,30.16,ESE,109,3.0,9.0,93,0.00,,,0.00,weatherlink.com 1.10,2013-05-20 01:23:00,
2013-05-19 21:38:00,62.9,61.0,30.16,SE,128,5.0,5.0,94,0.00,,,0.00,weatherlink.com 1.10,2013-05-20 01:38:00,
2013-05-19 21:53:00,62.8,61.0,30.16,ESE,110,3.0,8.0,94,0.00,,,0.00,weatherlink.com 1.10,2013-05-20 01:53:00,
2013-05-19 22:08:00,62.7,61.0,30.16,ESE,113,5.0,9.0,94,0.00,,,0.00,weatherlink.com 1.10,2013-05-20 02:08:00,
2013-05-19 22:23:00,62.6,61.0,30.16,ESE,115,4.0,6.0,94,0.00,,,0.00,weatherlink.com 1.10,2013-05-20 02:23:00,
2013-05-19 22:38:00,62.3,61.0,30.16,SE,144,4.0,8.0,95,0.00,,,0.00,weatherlink.com 1.10,2013-05-20 02:38:00,
2013-05-19 22:53:00,62.2,61.0,30.16,ESE,102,3.0,11.0,95,0.00,,,0.00,weatherlink.com 1.10,2013-05-20 02:53:00,
2013-05-19 23:08:00,62.0,61.0,30.15,SE,128,3.0,8.0,96,0.00,,,0.00,weatherlink.com 1.10,2013-05-20 03:08:00,
2013-05-19 23:23:00,62.0,61.0,30.14,ESE,122,2.0,7.0,96,0.00,,,0.00,weatherlink.com 1.10,2013-05-20 03:23:00,
2013-05-19 23:38:00,61.9,61.0,30.15,East,94,1.0,4.0,96,0.00,,,0.00,weatherlink.com 1.10,2013-05-20 03:38:00,
2013-05-19 23:53:00,62.0,61.0,30.15,ESE,102,2.0,7.0,96,0.00,,,0.00,weatherlink.com 1.10,2013-05-20 03:53:00,